Wind_Speed
26 26 25 25 25 24 23 22 22 21 20 20 19 19 19 19 19 18 18 18 17 17 17 16 16 16 15 15 15 15 15 15 15 15 16 16 17 17 18 18 19 20 21
27 27 27 27 27 26 26 25 24 23 22 21 20 20 21 21 20 19 19 19 19 19 19 18 18 18 18 17 17 17 17 18 18 18 18 19 19 20 21 21 22 23 24
28 28 29 29 29 28 28 27 26 25 24 23 22 22 22 22 21 21 21 21 21 21 21 20 20 20 20 20 19 19 19 20 20 20 21 21 22 23 24 25 26 26 28
30 29 29 31 31 30 30 29 28 28 27 25 24 23 24 24 23 23 22 23 22 23 23 22 22 22 22 22 22 21 21 22 23 23 24 24 25 26 27 27 28 29 31
31 30 29 30 31 31 30 30 29 29 28 27 25 25 25 25 25 25 24 24 24 24 24 24 24 24 24 24 24 24 25 25 26 26 27 27 28 29 30 31 32 33 33
30 30 30 31 30 31 31 31 30 29 28 28 27 27 27 26 27 27 26 25 25 25 25 25 26 26 26 26 27 27 28 28 28 29 30 30 31 32 32 33 34 35 36
29 30 30 30 30 29 30 30 30 29 28 28 28 28 27 27 27 27 27 27 28 27 27 28 28 28 28 29 29 29 29 30 31 31 32 33 34 34 35 36 37 38 39
27 29 29 28 28 28 28 28 29 29 28 29 28 28 28 29 28 28 28 29 29 29 29 30 30 30 30 31 32 32 32 33 33 34 35 36 36 37 37 38 38 39 40
27 27 27 28 28 27 26 26 27 29 28 28 28 29 29 29 29 29 30 31 32 32 32 31 32 32 33 34 34 34 34 35 36 36 37 37 38 38 38 39 40 41 42
25 26 26 25 26 27 26 25 26 26 27 27 28 29 29 29 29 30 30 31 32 33 33 33 33 34 34 35 36 36 35 36 37 38 38 38 38 39 40 41 41 42 42
24 24 24 23 23 24 25 25 25 25 26 26 26 27 28 28 29 30 31 32 32 33 34 35 35 34 35 36 36 37 37 37 37 37 37 38 39 40 41 41 42 43 44
24 23 23 23 22 22 22 23 23 22 23 24 25 27 28 28 29 30 31 32 33 33 34 34 34 34 35 37 37 37 37 36 37 37 38 39 40 41 41 42 43 44 46
23 22 22 22 21 21 21 21 22 23 23 23 25 26 27 28 28 28 30 31 32 32 33 34 34 34 35 35 35 35 35 36 37 38 39 39 40 41 42 43 44 45 46
23 23 22 22 21 21 21 21 21 22 23 24 25 26 26 27 28 28 29 30 30 31 31 31 32 33 34 34 35 35 36 36 37 38 39 41 42 43 44 44 46 47 47
23 22 22 22 22 21 22 23 22 22 23 25 26 27 27 27 28 29 30 30 30 30 30 30 31 32 34 35 35 36 36 37 38 40 41 42 42 43 44 45 46 46 46
21 21 20 21 21 20 21 23 23 23 23 24 25 26 27 27 28 29 30 30 30 30 31 31 32 33 35 36 37 38 38 39 40 41 41 42 42 43 43 44 44 44 43
20 20 20 20 21 21 21 22 22 23 23 24 25 26 27 27 28 28 29 29 30 31 32 33 34 34 36 37 38 39 39 40 40 40 41 41 42 42 42 41 41 40 39
20 19 19 20 21 22 22 22 22 23 23 24 24 25 26 27 27 28 29 30 30 31 32 33 34 35 36 37 38 39 39 39 40 40 40 40 40 39 38 37 36 36 35
19 18 19 20 21 22 22 22 22 22 22 23 24 24 25 26 28 29 29 30 30 31 32 33 34 35 37 37 38 38 39 39 39 39 38 38 37 35 34 33 33 32 32
19 19 20 21 21 21 21 21 22 22 23 24 24 25 26 27 27 28 28 29 30 31 32 34 35 36 36 37 37 37 37 37 37 37 36 34 33 32 31 30 29 29 28
19 20 21 21 22 22 22 22 22 23 24 24 25 26 26 27 27 28 29 30 31 32 32 33 34 34 35 35 35 35 36 35 35 34 32 31 30 30 29 28 27 26 25
20 21 21 22 22 22 22 22 23 23 24 24 25 25 26 26 27 28 29 30 31 31 31 32 32 32 33 33 33 33 33 32 32 30 29 29 28 27 26 25 24 23 23
21 21 21 21 21 22 22 22 23 23 23 23 24 24 25 25 26 27 28 29 29 29 30 30 31 31 31 31 31 30 30 29 29 28 27 26 26 25 24 23 22 22 21
17 18 18 18 19 19 19 20 20 21 21 22 22 23 24 24 25 26 27 28 28 28 28 28 29 29 29 28 28 27 27 27 27 26 25 24 23 22 21 21 21 20 20
16 16 16 17 17 17 18 18 18 19 20 20 21 22 22 23 24 24 25 25 26 26 26 27 27 27 26 26 26 25 25 24 24 23 22 22 21 20 20 19 19 18 17
14 14 14 15 16 16 16 17 17 18 19 19 20 20 21 21 22 22 22 23 23 24 24 24 24 24 23 23 23 22 22 21 21 20 19 19 18 18 17 17 16 16 15
Wind_Direction
261 261 261 260 260 260 259 258 257 256 256 255 252 249 249 249 250 251 252 253 254 255 257 259 262 266 271 274 274 276 277 279 280 282 284 284 284 285 285 284 284 284 284
261 260 260 260 260 259 259 259 257 256 254 253 252 249 248 247 248 248 251 253 254 256 258 259 261 264 267 270 273 273 274 276 279 280 281 282 283 283 283 284 284 284 284
263 261 259 259 258 258 259 259 257 254 254 252 251 249 246 246 248 248 250 252 254 256 259 260 262 264 266 269 271 272 273 276 278 279 280 281 281 282 283 283 283 284 284
261 262 259 258 257 256 257 257 257 252 250 247 249 248 247 247 247 248 249 251 253 257 259 260 263 265 266 268 270 271 274 275 277 278 280 280 281 281 282 283 284 284 284
259 261 261 259 256 255 255 255 253 252 249 244 245 246 247 246 247 247 248 251 254 256 259 262 263 264 267 268 270 272 274 275 276 278 279 280 281 282 282 283 283 284 284
259 259 259 260 259 255 254 253 252 249 246 244 243 244 243 244 247 247 247 250 253 257 259 262 263 266 267 268 270 272 273 275 275 277 279 280 282 282 283 283 283 283 284
262 259 258 259 256 254 252 250 248 245 243 243 242 241 241 243 245 245 248 251 253 255 259 262 263 265 268 269 271 272 273 274 275 277 279 281 282 282 282 283 283 283 283
261 258 256 252 252 250 250 249 244 242 243 241 240 240 240 242 243 246 249 252 254 256 260 264 264 265 268 269 271 273 274 274 276 277 279 281 282 283 283 283 284 284 284
260 258 254 251 253 253 249 246 239 236 239 239 239 239 240 245 248 249 252 254 256 258 261 264 266 267 269 270 271 274 274 275 277 278 280 282 282 283 283 284 284 285 285
260 255 254 254 250 248 247 243 238 238 238 239 240 240 242 247 248 249 253 255 258 260 262 265 268 269 271 272 273 275 276 277 278 280 280 282 282 283 284 284 284 285 285
254 250 250 252 249 245 241 241 239 238 236 238 241 244 247 249 251 251 252 256 260 262 263 266 268 271 272 273 274 276 277 278 279 281 281 282 283 283 283 284 284 285 285
251 249 249 247 245 242 238 238 237 236 236 239 242 246 249 251 253 254 254 257 261 263 265 267 268 271 271 273 275 276 278 279 280 281 282 283 284 284 284 285 285 286 287
249 249 247 244 244 244 241 237 237 238 239 242 245 248 250 252 254 256 258 260 263 266 268 269 269 271 271 274 276 278 279 279 280 282 283 284 285 286 286 287 287 288 288
250 247 243 242 245 247 244 241 242 243 242 243 246 249 250 252 254 256 259 262 266 267 269 270 271 271 272 274 275 277 279 280 282 283 284 285 286 287 288 288 289 290 291
246 243 241 241 243 245 244 244 245 247 247 246 247 249 250 251 253 256 260 263 266 267 268 269 271 274 275 276 276 278 280 282 283 284 285 286 287 288 289 290 291 292 292
245 242 242 242 243 245 247 248 249 250 248 247 249 249 249 250 253 256 259 263 265 266 268 271 272 274 275 275 277 279 281 283 284 285 286 287 289 290 291 292 293 293 294
247 244 243 244 247 250 250 249 250 251 251 250 250 251 252 253 255 258 260 262 264 267 269 271 272 274 275 277 278 280 282 284 285 287 288 290 291 292 293 293 294 294 295
250 248 246 248 249 249 249 250 250 250 251 251 252 253 254 254 257 259 261 265 266 267 270 273 274 275 277 279 280 282 284 285 286 288 290 290 292 293 294 294 295 296 297
252 249 249 251 252 251 250 250 250 250 252 254 255 258 259 260 261 261 263 264 266 268 272 274 275 277 279 280 282 283 285 286 288 289 290 291 292 293 294 295 297 298 299
250 250 251 252 254 254 253 252 253 253 255 257 259 261 262 263 264 265 266 268 270 271 273 274 276 278 280 282 283 284 285 287 288 289 290 292 292 294 295 296 298 299 301
248 252 253 254 256 255 255 256 257 257 259 262 263 264 265 266 266 269 270 271 272 273 275 277 278 280 282 284 285 286 286 287 288 289 290 291 292 294 295 297 298 299 301
253 257 257 255 256 256 257 258 258 260 262 263 264 266 267 269 270 271 273 273 274 276 279 280 281 283 284 285 286 286 286 287 288 289 290 291 292 294 295 296 297 299 301
255 257 257 257 257 259 259 259 260 262 263 265 266 268 270 271 272 273 275 277 279 280 281 282 283 285 286 287 287 288 288 289 289 290 291 291 292 293 293 294 295 297 300
251 254 255 257 259 261 260 260 262 263 265 268 270 272 274 275 277 278 280 281 282 283 284 285 285 287 288 288 288 289 289 290 290 290 290 291 291 292 292 293 295 297 299
253 254 257 259 260 260 261 262 264 266 269 272 274 276 278 280 281 282 283 285 285 286 286 286 287 288 289 289 289 290 291 291 290 290 290 291 291 291 291 293 295 297 299
257 256 257 258 259 262 263 263 267 270 273 275 278 281 283 285 285 286 288 289 289 290 290 290 291 291 291 291 291 292 292 291 290 290 291 292 292 292 292 294 295 296 299
Height
5857 5858 5860 5861 5862 5862 5863 5864 5866 5867 5869 5870 5872 5873 5874 5875 5877 5877 5878 5879 5880 5881 5882 5882 5883 5883 5883 5883 5884 5883 5883 5883 5883 5883 5883 5882 5882 5882 5881 5881 5881 5880 5879
5851 5852 5854 5855 5856 5857 5858 5860 5861 5863 5864 5866 5867 5869 5870 5871 5872 5874 5875 5876 5877 5877 5878 5878 5879 5879 5879 5880 5880 5880 5880 5879 5879 5879 5879 5878 5878 5877 5877 5876 5876 5875 5874
5845 5846 5848 5849 5850 5851 5853 5854 5856 5857 5859 5861 5862 5864 5865 5867 5868 5869 5870 5871 5872 5873 5874 5874 5875 5875 5875 5875 5875 5875 5875 5875 5875 5875 5874 5874 5873 5872 5872 5871 5870 5869 5869
5838 5839 5841 5842 5844 5845 5847 5848 5850 5852 5853 5855 5857 5859 5860 5862 5863 5864 5866 5867 5868 5868 5869 5870 5870 5871 5871 5871 5871 5871 5870 5870 5870 5869 5869 5868 5868 5867 5866 5865 5864 5863 5862
5831 5832 5834 5835 5836 5838 5840 5842 5843 5845 5847 5849 5851 5853 5855 5856 5858 5859 5861 5862 5863 5863 5864 5865 5865 5865 5865 5865 5865 5865 5865 5864 5864 5864 5863 5862 5861 5861 5860 5859 5857 5856 5855
5824 5826 5827 5829 5829 5831 5833 5835 5836 5838 5840 5843 5845 5847 5848 5850 5852 5854 5855 5856 5857 5858 5859 5859 5859 5859 5859 5859 5859 5859 5859 5858 5858 5857 5856 5855 5854 5853 5852 5851 5849 5848 5846
5818 5818 5820 5822 5822 5824 5825 5827 5829 5832 5834 5836 5838 5840 5842 5844 5846 5848 5849 5851 5851 5852 5853 5853 5853 5853 5853 5853 5853 5852 5852 5851 5851 5850 5849 5848 5847 5845 5844 5842 5841 5839 5837
5811 5811 5813 5814 5816 5817 5818 5820 5823 5825 5828 5830 5832 5833 5835 5838 5840 5842 5843 5845 5845 5846 5846 5847 5847 5847 5847 5846 5846 5845 5845 5844 5843 5842 5841 5839 5838 5837 5835 5833 5831 5829 5828
5803 5805 5806 5807 5808 5810 5812 5814 5816 5819 5821 5824 5826 5828 5830 5832 5834 5835 5837 5838 5839 5839 5840 5840 5840 5839 5839 5839 5839 5838 5837 5836 5835 5833 5832 5831 5829 5827 5826 5824 5822 5820 5817
5795 5797 5799 5801 5802 5804 5806 5808 5810 5812 5815 5817 5819 5822 5824 5826 5827 5829 5830 5830 5831 5832 5832 5832 5832 5832 5831 5831 5830 5830 5829 5828 5826 5825 5824 5822 5820 5818 5816 5814 5812 5809 5807
5790 5792 5794 5795 5797 5798 5800 5802 5804 5807 5809 5812 5813 5815 5817 5819 5820 5822 5822 5823 5824 5824 5824 5824 5824 5824 5823 5822 5822 5821 5820 5819 5818 5816 5814 5812 5810 5808 5806 5804 5801 5798 5796
5785 5786 5788 5790 5792 5793 5795 5797 5799 5801 5803 5805 5808 5809 5811 5812 5813 5815 5815 5816 5816 5816 5816 5816 5816 5815 5815 5814 5813 5812 5811 5810 5808 5807 5805 5803 5801 5798 5796 5793 5790 5787 5784
5779 5780 5782 5784 5785 5787 5790 5791 5793 5795 5797 5799 5802 5803 5804 5805 5806 5807 5808 5808 5808 5809 5809 5808 5808 5807 5806 5805 5804 5803 5802 5801 5799 5797 5795 5793 5791 5788 5785 5782 5779 5776 5772
5773 5774 5775 5778 5780 5782 5784 5786 5787 5789 5791 5793 5795 5796 5797 5798 5799 5800 5801 5801 5801 5801 5801 5800 5800 5799 5798 5797 5796 5795 5793 5791 5790 5788 5785 5783 5780 5777 5774 5771 5768 5764 5760
5767 5769 5770 5772 5774 5776 5778 5780 5782 5783 5785 5787 5788 5790 5791 5791 5792 5793 5793 5794 5794 5794 5793 5792 5792 5791 5789 5788 5787 5785 5784 5782 5780 5778 5775 5772 5769 5766 5763 5760 5756 5752 5749
5762 5764 5765 5767 5769 5771 5773 5775 5776 5778 5779 5780 5781 5782 5784 5784 5785 5785 5786 5786 5786 5786 5785 5784 5783 5782 5781 5779 5778 5776 5774 5772 5770 5767 5765 5762 5759 5756 5752 5749 5745 5741 5737
5757 5758 5760 5761 5763 5765 5767 5768 5770 5772 5773 5774 5775 5776 5776 5777 5778 5778 5778 5778 5778 5778 5777 5776 5775 5774 5772 5771 5769 5767 5764 5762 5760 5757 5754 5752 5748 5745 5742 5738 5735 5731 5727
5752 5753 5755 5756 5758 5759 5761 5762 5764 5765 5766 5767 5768 5769 5769 5770 5770 5771 5771 5770 5770 5769 5769 5767 5766 5765 5764 5762 5759 5757 5755 5752 5750 5747 5745 5742 5738 5735 5732 5729 5725 5722 5719
5746 5748 5749 5751 5752 5754 5755 5756 5757 5758 5760 5761 5761 5762 5762 5763 5763 5763 5762 5762 5761 5761 5760 5759 5758 5756 5754 5752 5750 5748 5745 5743 5740 5738 5735 5732 5729 5726 5723 5720 5717 5714 5711
5742 5743 5744 5745 5747 5748 5749 5750 5751 5752 5753 5754 5755 5755 5756 5756 5756 5755 5755 5754 5753 5753 5752 5750 5749 5747 5745 5743 5741 5739 5736 5734 5731 5729 5726 5723 5721 5718 5715 5713 5710 5707 5704
5736 5738 5739 5740 5741 5742 5743 5744 5745 5746 5747 5748 5748 5748 5748 5748 5748 5748 5747 5746 5745 5744 5743 5741 5740 5738 5736 5734 5732 5729 5727 5725 5722 5720 5718 5715 5713 5711 5708 5705 5703 5700 5697
5731 5733 5734 5735 5736 5736 5737 5738 5739 5740 5741 5741 5741 5741 5741 5741 5740 5740 5739 5738 5737 5736 5734 5733 5731 5729 5727 5725 5723 5721 5719 5716 5714 5712 5710 5708 5706 5704 5701 5699 5697 5694 5692
5726 5727 5729 5729 5730 5731 5732 5732 5733 5734 5734 5735 5735 5735 5734 5734 5733 5732 5731 5730 5729 5727 5726 5725 5723 5721 5719 5717 5715 5713 5711 5709 5707 5705 5703 5701 5699 5697 5695 5693 5691 5689 5687
5722 5723 5723 5724 5725 5726 5726 5727 5728 5728 5729 5729 5728 5728 5727 5727 5726 5725 5724 5722 5721 5719 5718 5716 5715 5713 5711 5709 5707 5706 5704 5702 5700 5698 5696 5694 5692 5691 5689 5687 5686 5684 5681
5718 5718 5719 5720 5721 5721 5722 5722 5723 5723 5723 5723 5723 5722 5721 5720 5719 5718 5717 5715 5714 5712 5710 5709 5707 5706 5704 5702 5701 5699 5697 5695 5693 5692 5690 5688 5687 5685 5684 5682 5680 5678 5677
5714 5715 5715 5716 5717 5717 5718 5718 5718 5718 5718 5718 5717 5717 5715 5714 5713 5712 5710 5709 5707 5705 5704 5702 5701 5699 5697 5696 5694 5693 5691 5689 5687 5686 5684 5683 5682 5680 5679 5677 5676 5674 5672